Time,TemperatureF,DewpointF,PressureIn,WindDirection,WindDirectionDegrees,WindSpeedMPH,WindSpeedGustMPH,Humidity,HourlyPrecipIn,Conditions,Clouds,dailyrainin,SolarRadiationWatts/m^2,SoftwareType,DateUTC
2013-01-23 00:03:00,-6.0,-16.0,-100.00,WNW,290,3.0,9.0,61,0.00,,,0.00,0.000000,,2013-01-23 05:03:00,
2013-01-23 00:12:00,-6.0,-16.0,-100.00,WNW,290,3.0,9.0,61,0.00,,,0.00,0.000000,,2013-01-23 05:12:00,
2013-01-23 00:23:00,-6.0,-16.0,-100.00,WNW,290,3.0,9.0,61,0.00,,,0.00,0.000000,,2013-01-23 05:23:00,
2013-01-23 00:53:00,-6.0,-14.0,-100.00,West,281,6.0,11.0,66,0.00,,,0.00,0.000000,,2013-01-23 05:53:00,
2013-01-23 01:03:00,-6.0,-14.0,-100.00,West,281,6.0,11.0,66,0.00,,,0.00,0.000000,,2013-01-23 06:03:00,
2013-01-23 01:13:00,-6.0,-14.0,-100.00,West,281,6.0,11.0,66,0.00,,,0.00,0.000000,,2013-01-23 06:13:00,
2013-01-23 01:23:00,-6.0,-14.0,-100.00,West,281,6.0,11.0,66,0.00,,,0.00,0.000000,,2013-01-23 06:23:00,
2013-01-23 01:53:00,-8.0,-16.0,-100.00,WNW,285,4.0,10.0,67,0.00,,,0.00,0.000000,,2013-01-23 06:53:00,
2013-01-23 02:02:00,-8.0,-16.0,-100.00,WNW,285,4.0,10.0,67,0.00,,,0.00,0.000000,,2013-01-23 07:02:00,
2013-01-23 02:13:00,-8.0,-16.0,-100.00,WNW,285,4.0,10.0,67,0.00,,,0.00,0.000000,,2013-01-23 07:13:00,
2013-01-23 02:22:00,-8.0,-16.0,-100.00,WNW,285,4.0,10.0,67,0.00,,,0.00,0.000000,,2013-01-23 07:22:00,
2013-01-23 02:53:00,-9.0,-17.0,-100.00,West,279,3.0,8.0,67,0.00,,,0.00,0.000000,,2013-01-23 07:53:00,
2013-01-23 03:02:00,-9.0,-17.0,-100.00,West,279,3.0,8.0,67,0.00,,,0.00,0.000000,,2013-01-23 08:02:00,
2013-01-23 03:13:00,-9.0,-17.0,-100.00,West,279,3.0,8.0,67,0.00,,,0.00,0.000000,,2013-01-23 08:13:00,
2013-01-23 03:23:00,-9.0,-17.0,-100.00,West,279,3.0,8.0,67,0.00,,,0.00,0.000000,,2013-01-23 08:23:00,
2013-01-23 03:53:00,-12.0,-20.0,-100.00,SSE,156,2.0,6.0,68,0.00,,,0.00,0.000000,,2013-01-23 08:53:00,
2013-01-23 04:03:00,-12.0,-20.0,-100.00,SSE,156,2.0,6.0,68,0.00,,,0.00,0.000000,,2013-01-23 09:03:00,
2013-01-23 04:12:00,-12.0,-20.0,-100.00,SSE,156,2.0,6.0,68,0.00,,,0.00,0.000000,,2013-01-23 09:12:00,
2013-01-23 04:22:00,-12.0,-20.0,-100.00,SSE,156,2.0,6.0,68,0.00,,,0.00,0.000000,,2013-01-23 09:22:00,
2013-01-23 04:53:00,-10.0,-18.0,-100.00,WNW,285,5.0,12.0,68,0.00,,,0.00,0.000000,,2013-01-23 09:53:00,
2013-01-23 05:03:00,-10.0,-18.0,-100.00,WNW,285,5.0,12.0,68,0.00,,,0.00,0.000000,,2013-01-23 10:03:00,
2013-01-23 05:12:00,-10.0,-18.0,-100.00,WNW,285,5.0,12.0,68,0.00,,,0.00,0.000000,,2013-01-23 10:12:00,
2013-01-23 05:23:00,-10.0,-18.0,-100.00,WNW,285,5.0,12.0,68,0.00,,,0.00,0.000000,,2013-01-23 10:23:00,
2013-01-23 05:53:00,-10.0,-18.0,-100.00,WNW,295,4.0,13.0,68,0.00,,,0.00,0.000000,,2013-01-23 10:53:00,
2013-01-23 06:03:00,-10.0,-18.0,-100.00,WNW,295,4.0,13.0,68,0.00,,,0.00,0.000000,,2013-01-23 11:03:00,
2013-01-23 06:12:00,-10.0,-18.0,-100.00,WNW,295,4.0,13.0,68,0.00,,,0.00,0.000000,,2013-01-23 11:12:00,
2013-01-23 06:23:00,-10.0,-18.0,-100.00,WNW,295,4.0,13.0,68,0.00,,,0.00,0.000000,,2013-01-23 11:23:00,
2013-01-23 06:53:00,-13.0,-21.0,-100.00,West,274,3.0,11.0,65,0.00,,,0.00,0.000000,,2013-01-23 11:53:00,
2013-01-23 07:03:00,-13.0,-21.0,-100.00,West,274,3.0,11.0,65,0.00,,,0.00,0.000000,,2013-01-23 12:03:00,
2013-01-23 07:13:00,-13.0,-21.0,-100.00,West,274,3.0,11.0,65,0.00,,,0.00,0.000000,,2013-01-23 12:13:00,
2013-01-23 07:23:00,-13.0,-21.0,-100.00,West,274,3.0,11.0,65,0.00,,,0.00,0.000000,,2013-01-23 12:23:00,
2013-01-23 07:53:00,-15.0,-24.0,-100.00,West,278,4.0,12.0,63,0.00,,,0.00,1.000000,,2013-01-23 12:53:00,
2013-01-23 08:04:00,-15.0,-24.0,-100.00,West,278,4.0,12.0,63,0.00,,,0.00,1.000000,,2013-01-23 13:04:00,
2013-01-23 08:13:00,-15.0,-24.0,-100.00,West,278,4.0,12.0,63,0.00,,,0.00,1.000000,,2013-01-23 13:13:00,
2013-01-23 08:23:00,-15.0,-24.0,-100.00,West,278,4.0,12.0,63,0.00,,,0.00,1.000000,,2013-01-23 13:23:00,
2013-01-23 08:53:00,-13.0,-23.0,-100.00,WNW,282,4.0,9.0,60,0.00,,,0.00,31.000000,,2013-01-23 13:53:00,
2013-01-23 09:03:00,-13.0,-23.0,-100.00,WNW,282,4.0,9.0,60,0.00,,,0.00,31.000000,,2013-01-23 14:03:00,
2013-01-23 09:12:00,-13.0,-23.0,-100.00,WNW,282,4.0,9.0,60,0.00,,,0.00,31.000000,,2013-01-23 14:12:00,
2013-01-23 09:23:00,-13.0,-23.0,-100.00,WNW,282,4.0,9.0,60,0.00,,,0.00,31.000000,,2013-01-23 14:23:00,
2013-01-23 09:53:00,-12.0,-24.0,-100.00,WNW,290,7.0,14.0,53,0.00,,,0.00,70.000000,,2013-01-23 14:53:00,
2013-01-23 10:03:00,-12.0,-24.0,-100.00,WNW,290,7.0,14.0,53,0.00,,,0.00,70.000000,,2013-01-23 15:03:00,
2013-01-23 10:13:00,-12.0,-24.0,-100.00,WNW,290,7.0,14.0,53,0.00,,,0.00,70.000000,,2013-01-23 15:13:00,
2013-01-23 10:23:00,-12.0,-24.0,-100.00,WNW,290,7.0,14.0,53,0.00,,,0.00,70.000000,,2013-01-23 15:23:00,
2013-01-23 10:53:00,-11.0,-25.0,-100.00,West,273,7.0,16.0,49,0.00,,,0.00,131.000000,,2013-01-23 15:53:00,
2013-01-23 11:03:00,-11.0,-25.0,-100.00,West,273,7.0,16.0,49,0.00,,,0.00,131.000000,,2013-01-23 16:03:00,
2013-01-23 11:12:00,-11.0,-25.0,-100.00,West,273,7.0,16.0,49,0.00,,,0.00,131.000000,,2013-01-23 16:12:00,
2013-01-23 11:23:00,-11.0,-25.0,-100.00,West,273,7.0,16.0,49,0.00,,,0.00,131.000000,,2013-01-23 16:23:00,
2013-01-23 11:53:00,-7.0,-24.0,-100.00,WNW,286,7.0,17.0,43,0.00,,,0.00,300.000000,,2013-01-23 16:53:00,
2013-01-23 12:03:00,-7.0,-24.0,-100.00,WNW,286,7.0,17.0,43,0.00,,,0.00,300.000000,,2013-01-23 17:03:00,
2013-01-23 12:12:00,-7.0,-24.0,-100.00,WNW,286,7.0,17.0,43,0.00,,,0.00,300.000000,,2013-01-23 17:12:00,
2013-01-23 12:23:00,-7.0,-24.0,-100.00,WNW,286,7.0,17.0,43,0.00,,,0.00,300.000000,,2013-01-23 17:23:00,
2013-01-23 12:53:00,-6.0,-24.0,-100.00,WNW,289,6.0,14.0,40,0.00,,,0.00,436.000000,,2013-01-23 17:53:00,
2013-01-23 13:04:00,-6.0,-24.0,-100.00,WNW,289,6.0,14.0,40,0.00,,,0.00,436.000000,,2013-01-23 18:04:00,
2013-01-23 13:13:00,-6.0,-24.0,-100.00,WNW,289,6.0,14.0,40,0.00,,,0.00,436.000000,,2013-01-23 18:13:00,
2013-01-23 13:24:00,-6.0,-24.0,-100.00,WNW,289,6.0,14.0,40,0.00,,,0.00,436.000000,,2013-01-23 18:24:00,
2013-01-23 13:53:00,-4.0,-25.0,-100.00,West,270,7.0,17.0,35,0.00,,,0.00,444.000000,,2013-01-23 18:53:00,
2013-01-23 14:03:00,-4.0,-25.0,-100.00,West,270,7.0,17.0,35,0.00,,,0.00,444.000000,,2013-01-23 19:03:00,
2013-01-23 14:13:00,-4.0,-25.0,-100.00,West,270,7.0,17.0,35,0.00,,,0.00,444.000000,,2013-01-23 19:13:00,
2013-01-23 14:23:00,-4.0,-25.0,-100.00,West,270,7.0,17.0,35,0.00,,,0.00,444.000000,,2013-01-23 19:23:00,
2013-01-23 14:53:00,-4.0,-25.0,-100.00,WNW,288,8.0,19.0,34,0.00,,,0.00,371.000000,,2013-01-23 19:53:00,
2013-01-23 15:03:00,-4.0,-25.0,-100.00,WNW,288,8.0,19.0,34,0.00,,,0.00,371.000000,,2013-01-23 20:03:00,
2013-01-23 15:13:00,-4.0,-25.0,-100.00,WNW,288,8.0,19.0,34,0.00,,,0.00,371.000000,,2013-01-23 20:13:00,
2013-01-23 15:23:00,-4.0,-25.0,-100.00,WNW,288,8.0,19.0,34,0.00,,,0.00,371.000000,,2013-01-23 20:23:00,
2013-01-23 15:54:00,-6.0,-26.0,-100.00,West,280,6.0,16.0,36,0.00,,,0.00,247.000000,,2013-01-23 20:54:00,
2013-01-23 16:03:00,-6.0,-26.0,-100.00,West,280,6.0,16.0,36,0.00,,,0.00,247.000000,,2013-01-23 21:03:00,
2013-01-23 16:12:00,-6.0,-26.0,-100.00,West,280,6.0,16.0,36,0.00,,,0.00,247.000000,,2013-01-23 21:12:00,
2013-01-23 16:23:00,-6.0,-26.0,-100.00,West,280,6.0,16.0,36,0.00,,,0.00,247.000000,,2013-01-23 21:23:00,
2013-01-23 16:53:00,-9.0,-27.0,-100.00,WNW,288,6.0,15.0,40,0.00,,,0.00,76.000000,,2013-01-23 21:53:00,
2013-01-23 17:03:00,-9.0,-27.0,-100.00,WNW,288,6.0,15.0,40,0.00,,,0.00,76.000000,,2013-01-23 22:03:00,
2013-01-23 17:13:00,-9.0,-27.0,-100.00,WNW,288,6.0,15.0,40,0.00,,,0.00,76.000000,,2013-01-23 22:13:00,
2013-01-23 17:23:00,-9.0,-27.0,-100.00,WNW,288,6.0,15.0,40,0.00,,,0.00,76.000000,,2013-01-23 22:23:00,
2013-01-23 18:03:00,-11.0,-27.0,-100.00,WNW,285,3.0,12.0,44,0.00,,,0.00,3.000000,,2013-01-23 23:03:00,
2013-01-23 18:13:00,-11.0,-27.0,-100.00,WNW,285,3.0,12.0,44,0.00,,,0.00,3.000000,,2013-01-23 23:13:00,
2013-01-23 18:23:00,-11.0,-27.0,-100.00,WNW,285,3.0,12.0,44,0.00,,,0.00,3.000000,,2013-01-23 23:23:00,
2013-01-23 18:53:00,-15.0,-26.0,-100.00,ESE,110,2.0,5.0,55,0.00,,,0.00,0.000000,,2013-01-23 23:53:00,
2013-01-23 19:03:00,-15.0,-26.0,-100.00,ESE,110,2.0,5.0,55,0.00,,,0.00,0.000000,,2013-01-24 00:03:00,
2013-01-23 19:12:00,-15.0,-26.0,-100.00,ESE,110,2.0,5.0,55,0.00,,,0.00,0.000000,,2013-01-24 00:12:00,
2013-01-23 19:22:00,-15.0,-26.0,-100.00,ESE,110,2.0,5.0,55,0.00,,,0.00,0.000000,,2013-01-24 00:22:00,
2013-01-23 19:53:00,-16.0,-26.0,-100.00,ESE,111,2.0,4.0,59,0.00,,,0.00,0.000000,,2013-01-24 00:53:00,
2013-01-23 20:03:00,-16.0,-26.0,-100.00,ESE,111,2.0,4.0,59,0.00,,,0.00,0.000000,,2013-01-24 01:03:00,
2013-01-23 20:12:00,-16.0,-26.0,-100.00,ESE,111,2.0,4.0,59,0.00,,,0.00,0.000000,,2013-01-24 01:12:00,
2013-01-23 20:23:00,-16.0,-26.0,-100.00,ESE,111,2.0,4.0,59,0.00,,,0.00,0.000000,,2013-01-24 01:23:00,
2013-01-23 20:53:00,-15.0,-26.0,-100.00,West,265,3.0,7.0,56,0.00,,,0.00,0.000000,,2013-01-24 01:53:00,
2013-01-23 21:03:00,-15.0,-26.0,-100.00,West,265,3.0,7.0,56,0.00,,,0.00,0.000000,,2013-01-24 02:03:00,
2013-01-23 21:12:00,-15.0,-26.0,-100.00,West,265,3.0,7.0,56,0.00,,,0.00,0.000000,,2013-01-24 02:12:00,
2013-01-23 21:23:00,-15.0,-26.0,-100.00,West,265,3.0,7.0,56,0.00,,,0.00,0.000000,,2013-01-24 02:23:00,
2013-01-23 22:03:00,-15.0,-26.0,-100.00,WSW,256,3.0,10.0,56,0.00,,,0.00,0.000000,,2013-01-24 03:03:00,
2013-01-23 22:12:00,-15.0,-26.0,-100.00,WSW,256,3.0,10.0,56,0.00,,,0.00,0.000000,,2013-01-24 03:12:00,
2013-01-23 22:22:00,-15.0,-26.0,-100.00,WSW,256,3.0,10.0,56,0.00,,,0.00,0.000000,,2013-01-24 03:22:00,
2013-01-23 22:53:00,-15.0,-25.0,-100.00,WNW,283,5.0,13.0,58,0.00,,,0.00,0.000000,,2013-01-24 03:53:00,
2013-01-23 23:03:00,-15.0,-25.0,-100.00,WNW,283,5.0,13.0,58,0.00,,,0.00,0.000000,,2013-01-24 04:03:00,
2013-01-23 23:12:00,-15.0,-25.0,-100.00,WNW,283,5.0,13.0,58,0.00,,,0.00,0.000000,,2013-01-24 04:12:00,
2013-01-23 23:22:00,-15.0,-25.0,-100.00,WNW,283,5.0,13.0,58,0.00,,,0.00,0.000000,,2013-01-24 04:22:00,
2013-01-23 23:53:00,-16.0,-26.0,-100.00,West,276,4.0,10.0,60,0.00,,,0.00,0.000000,,2013-01-24 04:53:00,